Theta_e
304 304 305 305 305 306 307 308 308 309 310 310 311 311 311 312 312 313 317 319 319 319 320 320 321 321 320 320 319 319 319 319 319 320 320 320 320 321 321 321 322 323 323 323 322 321 321 321 321 322 322 322 322 322 322 321 321 321 321 321 320 319 319 318 318 318 318 317 317 316 316 316 315 315 314 314 314 314 313 312 310 306 303 301 299
303 304 304 305 305 306 307 308 308 309 309 309 310 310 311 311 311 312 315 316 316 316 317 317 317 317 318 318 317 317 317 317 317 318 318 317 318 318 318 319 319 320 320 320 321 320 320 321 320 320 320 319 319 319 319 319 319 320 320 320 319 319 318 317 317 317 316 316 315 315 315 314 314 314 313 313 313 313 313 313 312 311 308 305 301
302 303 304 305 305 306 307 307 307 307 307 307 307 308 308 308 309 310 310 310 310 311 311 310 310 311 312 312 313 313 313 314 314 314 314 313 313 313 313 313 313 314 314 316 317 318 318 319 319 318 318 317 317 317 317 317 317 318 318 317 317 317 316 316 315 315 315 315 314 312 311 312 313 312 312 312 312 312 311 311 312 311 310 306 302
303 303 304 305 305 306 306 306 306 306 306 306 306 307 307 307 307 307 307 307 308 307 307 307 307 307 308 308 308 308 308 308 308 308 308 308 307 307 307 307 307 307 308 309 310 311 312 313 313 313 313 314 314 313 313 314 314 314 314 314 314 315 315 314 315 314 314 314 312 311 310 310 310 310 310 310 311 310 311 311 310 310 308 306 303
303 304 304 305 305 305 305 305 306 306 307 306 306 306 306 307 307 307 307 307 307 307 307 307 307 307 307 307 307 306 306 306 306 306 305 305 305 305 305 304 305 305 305 306 306 306 306 306 306 306 306 307 307 307 308 309 310 311 311 311 312 313 313 313 313 313 313 312 311 310 309 307 307 308 308 309 309 309 309 310 310 310 309 308 308
303 304 304 305 305 305 305 305 306 306 306 306 306 306 306 306 306 306 306 306 306 306 306 306 306 306 306 306 306 306 306 305 305 306 305 305 305 304 304 304 304 305 305 305 305 305 305 305 304 304 304 303 303 304 304 305 306 307 308 309 309 310 310 310 311 311 311 311 310 309 307 306 306 306 305 306 308 309 308 308 308 309 309 309 309
303 304 304 304 304 304 305 305 305 305 305 305 305 304 305 305 304 305 305 304 304 304 304 304 304 304 304 304 305 305 305 305 305 305 305 304 304 304 304 304 304 304 304 304 305 305 305 304 304 304 303 303 302 302 302 302 302 303 304 305 307 307 307 307 308 308 309 309 308 308 307 306 305 304 303 303 304 306 307 307 307 307 307 307 308
303 303 304 304 304 304 304 304 304 304 304 304 304 304 303 304 304 303 303 303 303 303 303 303 303 303 303 303 303 303 303 303 303 304 304 303 303 304 303 303 303 303 303 303 303 303 303 303 303 303 303 302 302 301 301 301 300 300 300 301 303 304 305 305 305 305 305 306 306 306 306 306 305 304 304 302 301 302 305 306 305 305 305 305 306
302 303 303 303 303 303 303 303 303 303 303 303 303 303 303 303 302 302 302 302 302 302 302 302 302 302 302 302 302 302 302 302 303 303 303 303 303 303 303 302 302 302 302 302 302 302 302 302 301 301 301 301 301 301 300 300 300 300 299 299 299 300 300 301 302 302 303 303 304 304 304 304 304 304 304 304 302 301 302 304 304 304 304 304 304
302 303 303 303 303 303 303 302 302 302 302 302 302 302 302 301 302 302 301 301 301 301 301 301 301 301 301 301 301 301 301 301 301 301 302 301 302 302 301 301 301 300 300 299 300 299 299 299 299 299 298 298 298 298 298 298 298 298 298 297 297 297 298 298 298 299 300 301 301 301 302 302 302 302 302 302 302 301 301 302 303 303 302 302 302
302 302 302 303 302 302 302 302 302 301 301 301 301 301 301 301 301 301 301 300 300 300 300 300 300 300 300 300 300 300 300 300 300 300 300 300 300 300 299 299 299 298 298 297 297 296 296 295 295 295 294 294 294 294 294 294 293 293 293 293 294 294 294 294 295 296 296 297 298 298 299 299 299 299 300 300 300 300 299 300 301 301 301 301 301
301 302 302 302 302 302 302 301 301 301 301 300 300 300 300 300 300 300 300 300 300 299 299 299 299 299 299 299 300 299 299 299 299 299 298 298 298 297 296 296 296 295 295 295 295 294 293 293 293 292 292 292 292 291 291 291 290 290 290 290 290 290 290 290 291 291 292 292 293 294 295 296 296 297 297 298 298 298 298 298 298 299 299 299 299
301 302 302 302 302 301 301 301 301 300 300 300 300 300 299 299 299 300 299 299 299 299 299 299 299 299 299 298 299 299 298 298 298 298 297 297 296 295 295 294 294 294 293 293 293 293 292 292 292 291 291 291 291 290 290 290 290 290 290 290 289 289 289 289 289 289 289 289 289 289 290 290 291 292 293 294 295 295 296 296 297 297 297 298 298
301 301 302 301 301 301 300 300 300 300 300 299 299 299 299 299 299 299 299 298 298 298 298 298 298 298 298 298 298 298 297 297 297 297 296 296 295 295 294 293 293 292 292 292 291 291 290 290 290 290 290 290 290 290 290 290 290 290 289 289 289 289 289 288 288 288 288 288 288 288 288 288 288 288 288 289 289 290 291 291 292 293 294 294 295
301 301 301 301 301 301 300 300 300 299 299 299 299 299 298 298 298 298 298 298 298 297 297 297 297 297 297 297 297 297 296 296 296 296 295 295 294 293 292 292 292 291 291 290 290 289 289 289 289 289 289 289 289 289 289 289 289 289 289 289 289 289 288 288 288 288 288 288 288 288 288 288 287 287 287 287 287 287 287 287 288 289 289 290 290
301 301 301 301 301 300 300 300 299 299 299 298 298 298 298 298 298 297 297 297 297 297 296 296 296 296 296 296 296 296 295 295 294 294 293 293 292 291 291 291 291 290 290 290 289 289 289 289 289 289 288 288 288 288 288 288 289 288 289 289 289 288 288 288 288 288 288 287 287 287 287 287 287 287 287 287 287 287 287 286 286 286 287 287 287
301 301 301 301 300 300 300 299 299 299 299 298 298 298 297 297 297 297 297 296 296 296 295 295 295 295 295 295 295 294 294 293 292 292 292 291 291 291 290 290 290 290 289 289 289 289 289 289 289 289 289 289 288 288 288 288 288 288 288 288 288 288 288 288 288 288 287 287 287 287 287 287 287 287 287 287 287 287 287 287 286 286 286 286 286
301 301 301 300 300 300 299 299 299 298 298 298 297 297 297 296 296 296 295 295 295 295 294 294 294 294 294 293 293 292 292 291 291 291 291 290 290 290 289 289 289 289 289 289 289 289 289 289 289 289 289 289 289 288 288 288 288 288 288 288 288 288 288 287 287 287 287 287 287 287 287 287 287 287 287 287 287 287 287 287 287 286 286 286 286
300 300 300 300 299 299 299 299 298 298 297 297 297 296 296 295 295 294 294 294 294 293 293 293 293 293 292 292 291 291 290 290 290 290 289 289 289 289 289 289 289 288 288 288 288 288 288 288 288 288 288 288 288 288 288 288 288 288 288 288 288 287 287 287 287 287 287 287 287 287 287 287 287 287 288 287 288 287 287 287 287 287 286 286 286
300 300 300 299 299 299 299 298 298 298 297 296 296 295 295 294 294 293 293 293 293 292 292 292 291 291 291 290 290 289 289 289 289 289 288 289 288 288 288 288 288 288 288 288 288 288 288 288 288 288 288 288 287 287 287 288 288 288 288 287 287 287 287 287 287 287 287 287 287 287 287 287 287 287 288 288 288 288 287 287 287 287 287 286 286
301 300 300 300 299 299 298 297 297 297 296 296 295 295 294 293 293 293 292 292 291 291 291 290 290 290 289 289 289 289 289 289 288 288 288 288 288 288 288 288 288 288 288 288 288 288 288 287 287 287 287 287 287 287 287 287 287 287 287 287 287 287 287 287 287 287 287 287 287 288 288 288 288 288 288 287 287 287 287 287 287 287 287 286 286
301 300 300 300 299 298 298 297 296 296 296 296 295 294 293 293 292 292 291 291 290 290 290 290 289 289 289 289 289 289 288 288 288 288 289 289 289 289 289 288 288 288 288 288 288 288 288 288 287 287 287 287 287 286 286 286 286 286 286 286 286 287 287 287 287 287 287 287 287 287 287 288 288 288 288 287 287 287 287 287 287 287 287 287 286
300 300 300 299 298 297 297 297 296 296 296 295 294 293 293 292 292 291 291 290 290 290 289 289 289 289 289 288 288 288 288 289 289 289 289 289 289 289 289 289 289 288 288 288 288 288 288 288 288 287 287 287 286 286 286 286 286 286 286 286 286 286 286 287 287 287 287 287 287 287 287 287 287 287 287 287 287 287 287 287 287 287 286 287 286
299 299 299 298 297 297 296 296 296 295 295 294 293 293 293 292 292 291 290 290 289 289 289 289 288 288 288 288 288 289 289 289 289 289 289 289 289 289 289 289 289 288 288 288 288 288 288 288 288 287 287 286 286 286 286 286 286 286 286 286 286 286 286 286 286 286 287 287 286 287 287 286 286 286 287 287 287 287 287 286 287 287 286 286 286
299 298 298 298 297 297 297 296 296 295 294 294 294 294 293 292 291 290 289 289 289 289 288 288 288 288 289 289 289 289 289 289 289 289 289 289 289 289 289 289 288 288 288 288 288 288 288 288 287 287 286 286 285 285 285 285 285 285 285 285 285 286 286 286 286 286 286 286 286 286 286 286 286 286 286 286 286 286 286 286 286 286 286 285 285
299 299 298 298 298 298 297 296 295 294 295 295 295 295 294 292 291 290 289 289 289 288 288 288 289 289 289 289 290 290 289 289 289 289 289 289 289 289 289 289 288 288 288 288 288 288 288 287 287 286 285 285 285 285 285 285 285 285 285 285 285 285 285 285 286 286 286 285 285 285 285 285 285 285 286 285 285 285 285 285 285 285 285 284 283
299 299 298 298 299 299 297 296 295 294 295 296 296 295 295 293 291 290 289 289 288 288 288 289 289 289 290 290 290 290 290 289 290 290 289 289 289 289 289 289 288 288 288 288 288 288 287 287 286 285 285 284 284 284 284 284 284 284 284 284 285 285 285 285 285 285 285 285 285 285 285 285 285 284 284 284 283 282 282 283 283 283 283 282 282
301 300 299 300 300 299 297 296 296 295 295 295 296 296 295 294 291 290 289 288 288 288 289 289 289 289 290 290 289 289 289 289 289 289 289 289 289 289 289 289 288 288 288 287 287 287 287 286 285 284 284 284 284 284 284 284 284 284 284 284 284 285 285 285 285 285 285 285 285 285 285 284 284 283 283 282 281 280 279 280 280 280 280 280 281
302 301 301 301 300 299 297 296 296 295 295 295 295 296 296 294 290 289 288 288 288 288 289 289 289 289 289 289 289 289 289 289 289 289 289 289 289 289 289 288 288 287 287 287 287 286 285 284 284 284 284 284 284 283 283 283 284 284 284 284 284 284 284 284 285 285 285 285 284 284 284 284 283 282 281 280 279 278 278 278 278 277 277 278 278
301 301 301 301 300 298 297 297 296 296 296 295 296 296 295 293 290 288 288 288 288 288 289 289 289 289 289 289 289 289 289 289 289 289 289 289 289 289 288 288 287 287 287 287 286 285 284 284 284 284 284 283 283 283 283 283 283 283 284 284 284 284 284 284 284 284 284 284 284 284 283 282 281 281 280 279 278 277 277 276 276 276 276 276 277
300 300 300 300 300 298 297 297 297 297 296 296 296 296 294 291 289 288 288 288 288 289 289 289 289 289 289 289 289 289 289 289 289 289 289 289 288 288 288 287 287 287 287 286 285 284 283 283 283 283 283 283 283 283 283 283 283 283 283 283 283 283 283 283 283 283 283 283 283 282 281 281 280 279 278 278 278 277 276 276 276 276 275 276 276
301 301 300 300 299 299 298 297 297 296 296 295 295 295 293 291 289 289 289 288 289 289 289 289 289 289 289 289 289 289 289 289 289 289 288 288 288 288 287 287 287 287 286 285 284 283 283 283 283 283 283 283 283 283 283 283 283 283 282 282 282 282 282 282 282 281 281 281 280 280 279 279 278 278 278 277 277 277 277 277 277 276 275 275 275
300 299 298 298 298 298 298 298 297 296 296 296 296 295 292 290 290 290 290 289 289 289 289 289 289 289 289 289 289 289 289 289 288 288 288 288 287 287 287 287 287 286 285 284 283 283 283 283 283 283 283 283 283 283 283 283 283 282 282 281 281 281 281 281 280 279 279 278 278 277 277 277 277 277 277 277 277 277 277 277 276 276 275 274 274
298 297 297 297 297 298 298 297 296 296 296 295 295 293 291 290 290 291 291 290 290 290 289 289 289 289 289 289 289 289 289 288 288 288 287 287 287 287 286 286 285 284 283 283 283 283 283 283 283 283 283 283 283 283 283 282 282 282 281 281 281 280 280 280 279 278 277 276 276 276 276 276 276 276 276 276 276 276 276 275 275 274 273 272 272
297 297 296 296 297 297 297 296 295 295 295 294 293 292 291 291 291 291 291 291 290 290 290 290 289 289 289 289 289 289 288 288 287 287 287 287 287 286 286 285 284 283 283 283 283 283 283 283 282 282 283 283 283 283 282 282 281 281 281 280 280 280 279 279 278 277 276 275 275 275 275 275 275 275 275 275 275 274 274 273 272 272 272 271 272
296 296 296 295 295 295 294 294 294 293 293 293 293 292 292 292 292 291 291 291 290 290 290 289 289 289 289 289 288 288 287 287 287 287 287 287 286 286 285 284 283 283 282 282 282 282 282 282 282 282 283 283 283 282 282 281 281 280 280 280 279 279 278 278 277 276 275 275 275 274 274 274 274 274 275 274 274 273 272 271 271 271 272 272 272
295 294 294 293 293 293 292 292 292 292 292 292 292 292 292 292 291 291 290 290 289 289 289 289 289 289 289 288 288 287 287 287 287 287 287 286 286 285 284 283 283 282 282 282 282 282 282 282 282 282 283 283 283 282 281 281 280 280 279 278 278 278 277 277 276 275 275 274 274 273 273 273 273 274 275 274 273 272 272 272 272 273 273 273 273
294 293 293 292 292 292 292 292 291 291 291 291 291 291 291 290 290 290 289 289 289 289 289 289 289 289 288 288 287 287 287 287 287 286 286 286 285 284 283 282 282 282 282 282 282 282 282 282 282 282 282 282 282 281 280 280 280 278 278 277 277 277 276 276 275 275 274 273 273 273 273 273 273 273 274 273 272 273 273 273 273 273 273 273 274
293 293 292 292 292 291 291 291 291 291 291 291 290 290 290 290 289 289 289 289 289 289 289 289 288 288 288 287 287 287 287 287 286 286 286 285 284 283 282 282 282 281 282 282 282 282 282 282 282 282 282 281 281 281 280 279 279 278 277 277 276 276 276 276 275 274 273 273 273 273 273 273 273 273 273 273 273 273 274 274 274 274 274 274 275
292 292 292 291 291 291 291 290 290 290 290 290 290 290 289 289 289 289 289 289 289 289 289 289 288 288 287 287 287 287 287 287 286 286 285 284 283 282 282 281 281 281 281 281 281 282 282 282 282 282 281 281 280 280 280 279 278 277 277 276 276 276 276 275 274 273 272 272 272 273 273 273 273 273 273 273 273 274 274 275 275 275 275 276 276
292 292 291 291 291 291 290 290 290 290 290 290 290 289 289 289 289 289 289 289 289 289 288 288 288 288 287 287 287 287 286 286 286 286 285 283 282 281 281 281 281 281 281 281 281 281 282 282 282 281 281 280 279 279 279 278 277 277 276 276 276 275 274 273 272 271 271 271 271 271 272 272 273 274 274 274 274 275 276 276 276 276 276 276 277
292 291 291 291 291 291 290 290 290 290 289 289 289 289 289 288 288 288 288 288 288 288 288 288 288 287 287 286 286 286 286 286 285 285 284 282 281 281 281 281 280 281 281 281 281 281 281 282 281 281 281 280 279 278 278 278 277 277 277 276 276 274 273 271 271 271 271 271 271 271 271 272 273 274 274 275 275 276 277 277 277 277 277 277 277
292 292 291 291 291 291 290 290 290 289 289 289 289 289 288 288 288 288 288 288 288 288 288 288 287 287 286 286 286 286 285 285 285 284 283 282 281 281 280 280 280 280 280 281 281 281 281 281 281 281 280 279 279 278 278 277 277 277 277 276 275 274 273 272 272 272 271 271 271 271 272 273 274 275 275 276 276 276 276 276 276 277 277 277 276
292 292 292 291 291 291 290 290 290 289 289 289 289 289 288 288 288 288 288 288 288 288 287 287 287 286 286 286 286 285 285 285 284 282 282 281 281 280 280 280 280 280 280 280 280 280 280 280 281 281 280 279 278 278 278 277 277 277 276 276 275 274 273 272 272 272 272 272 272 272 273 274 275 275 276 276 276 276 276 276 276 276 276 276 276
292 292 292 291 291 291 290 290 290 289 289 289 289 289 289 288 288 288 288 288 287 287 287 286 286 286 286 286 285 285 285 284 282 281 281 281 280 280 280 279 279 279 280 280 280 280 280 280 280 280 279 279 278 278 278 277 277 276 276 276 275 273 272 272 272 272 272 272 273 273 273 274 275 275 275 275 275 275 275 275 275 275 275 275 275
291 291 291 291 291 291 290 290 290 289 289 289 289 289 288 288 288 288 288 288 287 287 286 286 286 286 285 285 285 285 284 283 282 281 281 280 280 280 279 279 279 279 279 279 279 279 279 279 279 279 279 278 278 277 277 277 276 276 276 276 274 272 272 272 272 272 272 272 273 273 274 274 274 274 274 274 274 274 274 274 275 275 275 275 275
291 291 291 291 291 291 291 290 290 290 289 289 289 289 288 288 288 288 288 287 287 286 286 286 285 285 285 285 285 284 284 282 281 280 280 280 279 279 279 279 279 279 279 279 279 278 278 278 278 278 278 277 277 277 276 276 276 276 275 274 272 272 271 271 272 272 272 273 273 273 274 274 274 274 274 273 273 273 273 273 274 275 275 275 275
291 291 291 291 291 291 291 290 290 290 289 289 289 288 288 288 288 288 287 287 287 286 286 285 285 285 285 285 284 284 283 282 280 280 280 279 279 279 279 279 278 278 278 278 278 278 278 277 277 277 277 277 276 276 276 275 275 274 272 271 271 271 272 272 272 272 272 272 273 273 273 274 274 274 274 273 272 272 272 273 274 274 275 275 276
291 291 291 291 291 291 291 290 290 290 289 289 288 288 288 288 288 288 287 287 287 286 285 285 285 284 284 284 284 284 283 281 280 280 280 279 279 278 278 278 278 278 278 278 278 278 277 277 276 276 275 275 275 275 275 274 272 271 271 271 272 272 272 272 272 272 272 272 273 273 273 274 274 274 274 273 273 273 273 274 274 274 275 275 276
291 291 291 291 290 290 290 290 290 290 289 289 288 288 288 288 288 288 287 287 286 286 285 285 284 284 284 284 284 283 282 280 280 280 280 279 278 278 278 278 278 278 277 277 277 277 276 275 275 275 274 274 274 274 274 272 271 270 271 272 272 273 273 273 273 273 273 273 273 273 273 273 273 273 273 272 272 273 273 273 274 274 275 275 275
291 291 291 290 290 290 290 290 290 289 289 288 288 288 288 288 288 287 287 287 286 285 285 284 284 284 284 283 283 282 281 280 280 280 280 279 279 278 277 277 277 277 277 276 276 276 275 275 275 274 274 274 274 274 274 273 271 270 271 272 273 273 274 274 274 274 274 273 273 272 273 272 272 272 272 271 271 272 272 272 273 274 275 275 275
Wind_Speed
5 4 3 3 4 5 5 5 5 4 5 6 6 7 8 8 8 10 12 11 9 9 8 6 6 5 3 3 3 4 3 1 1 1 2 4 5 6 8 8 7 7 6 8 10 10 11 12 13 13 13 13 13 14 16 16 17 17 16 16 17 18 18 17 16 17 19 20 20 21 21 22 23 25 25 25 25 24 24 24 23 24 25 26 27
3 3 4 5 6 6 6 5 6 7 9 10 11 12 12 12 12 13 13 10 10 9 8 7 7 6 5 5 5 3 2 1 2 1 2 5 6 7 7 8 10 11 11 11 11 10 10 11 13 14 15 16 17 17 18 19 19 19 19 20 22 22 21 19 18 19 20 21 22 25 25 25 25 25 26 26 25 24 24 24 23 23 23 23 24
6 6 8 9 9 10 10 11 12 14 16 16 17 17 17 18 18 18 17 16 16 14 13 14 13 12 10 9 8 6 6 6 5 5 4 5 6 7 7 7 8 9 9 10 10 11 12 13 14 15 17 18 18 19 19 20 21 22 23 23 23 23 23 22 21 21 20 21 21 21 23 27 28 25 23 24 24 24 24 25 24 23 22 21 21
11 12 13 14 15 16 18 19 20 21 22 22 22 21 22 22 22 21 21 21 21 20 19 19 18 16 15 13 11 11 12 11 9 8 7 7 7 8 8 8 8 9 8 8 8 9 10 12 13 14 15 15 16 16 16 17 18 19 21 22 22 21 20 21 21 21 21 20 18 17 19 22 22 21 25 27 26 25 24 23 22 22 21 21 21
15 17 18 20 21 22 23 24 24 24 25 25 25 24 24 24 24 23 23 23 23 22 21 20 19 18 17 15 14 13 13 11 10 10 9 8 8 9 10 10 9 9 8 8 9 9 9 9 9 10 11 11 12 12 13 13 14 15 16 17 18 18 19 19 20 20 20 19 17 16 15 15 16 22 29 32 28 25 24 24 24 24 24 25 25
19 21 22 23 24 25 25 25 25 25 25 25 24 24 24 24 23 23 23 23 23 22 21 19 19 18 17 16 14 12 12 12 12 13 11 10 10 10 10 9 8 8 8 8 9 9 10 10 10 10 10 10 11 11 12 12 13 13 14 14 16 17 18 19 19 20 19 18 18 16 14 15 19 23 25 29 33 33 31 29 29 28 29 29 30
21 23 24 25 25 25 25 25 24 25 24 23 22 22 22 22 22 21 22 22 22 21 19 18 17 17 16 15 14 13 13 14 15 14 13 13 11 10 9 9 8 8 8 8 8 8 9 9 9 9 10 10 10 10 10 11 12 12 13 14 15 16 17 18 18 20 20 19 18 18 17 17 19 20 21 24 32 38 38 35 34 34 33 33 33
22 24 25 25 25 24 24 23 23 23 22 21 20 20 20 20 20 20 20 21 20 19 18 17 17 16 16 15 14 15 15 15 14 13 13 12 10 9 10 9 9 9 8 8 8 8 8 8 9 9 9 9 10 10 11 11 11 12 12 13 14 15 16 16 16 18 19 19 19 19 19 20 20 20 22 22 25 34 41 41 39 37 36 36 36
23 25 25 25 24 23 23 22 22 21 20 19 19 19 19 18 18 18 19 20 19 17 16 17 17 16 16 15 15 16 15 14 12 11 11 10 9 9 9 9 10 10 10 10 9 10 10 10 10 10 10 10 10 11 11 12 12 12 12 12 12 13 14 15 15 17 18 18 19 19 20 21 22 22 23 24 24 29 37 41 41 41 41 40 38
23 24 25 24 23 22 21 21 20 19 19 18 18 18 18 17 16 16 18 18 17 16 15 17 16 15 16 15 15 15 14 12 10 9 9 8 8 8 8 9 10 10 10 11 10 11 11 11 11 11 12 12 12 11 11 12 13 14 15 14 14 13 13 13 13 14 16 18 19 20 21 21 21 21 21 22 24 26 31 37 40 42 44 45 43
23 24 24 23 22 21 20 19 19 18 17 16 16 16 16 15 14 15 17 16 15 15 14 15 15 14 15 14 13 14 12 9 8 8 8 7 8 8 8 9 9 9 10 10 10 11 12 12 13 13 13 13 13 13 13 14 14 14 15 15 15 15 14 13 12 12 12 13 15 17 19 20 20 21 21 21 23 25 28 33 37 39 43 46 44
23 23 23 22 21 20 18 17 17 17 15 14 14 15 14 13 12 13 15 14 13 13 12 13 13 12 13 12 10 11 9 7 7 8 7 7 8 8 7 7 7 7 8 9 9 10 11 12 12 12 13 13 14 14 15 15 15 15 14 14 15 14 14 14 14 13 13 12 12 13 14 15 16 18 20 22 23 25 27 32 35 37 42 46 44
23 23 22 21 19 18 17 16 16 15 13 12 12 12 13 12 10 11 12 12 11 11 10 10 10 10 10 9 8 7 7 6 7 7 7 7 7 7 7 7 7 8 9 10 10 11 12 12 12 13 14 14 14 14 14 14 15 15 15 15 16 16 16 16 16 16 16 15 14 13 13 13 13 14 16 18 20 22 25 29 32 33 38 44 44
23 23 22 20 19 17 15 14 14 13 12 11 11 11 11 11 9 8 10 10 9 8 8 8 8 8 7 7 6 5 5 6 6 7 7 7 8 8 9 10 10 11 11 12 12 12 13 13 14 14 14 14 14 14 15 15 16 16 17 17 17 18 18 18 18 17 17 17 17 16 15 14 14 14 15 16 17 19 20 24 28 29 32 37 39
25 24 22 20 18 16 15 14 13 12 11 10 9 9 9 8 7 6 8 8 7 6 6 5 6 7 5 5 5 4 4 5 5 6 7 8 9 10 10 12 12 13 14 14 14 13 14 14 14 14 14 15 15 15 15 15 16 16 17 18 18 19 19 19 19 19 19 19 20 20 19 18 18 18 18 18 19 20 21 21 24 28 32 35 37
26 24 23 20 18 17 15 14 13 11 10 9 8 8 7 6 6 5 5 5 4 4 4 4 5 5 3 3 3 3 3 4 4 6 6 7 8 9 10 11 12 13 13 14 14 14 15 15 16 16 16 17 17 17 17 17 18 18 18 19 19 20 21 21 22 22 22 22 22 22 22 22 21 22 22 23 22 23 23 23 23 25 28 33 37
28 25 23 21 19 18 16 14 13 11 10 9 8 7 6 5 4 3 3 3 3 2 2 2 2 2 1 1 2 2 2 3 4 5 6 7 8 9 10 11 12 13 13 14 15 15 16 17 18 18 19 19 20 20 20 20 20 21 21 21 22 22 22 23 24 24 25 25 25 25 26 25 25 25 25 26 26 27 26 26 26 25 25 28 32
28 26 24 22 21 19 17 15 13 12 10 9 8 7 6 5 4 4 3 3 3 3 2 2 2 2 2 2 2 3 3 4 4 5 6 7 8 9 10 11 11 13 14 14 15 16 17 18 19 19 20 21 22 22 23 23 23 23 23 24 24 25 25 25 26 27 27 28 28 28 29 29 29 28 28 29 29 30 30 29 29 29 28 29 30
30 29 27 25 22 20 18 16 14 13 11 10 9 7 6 6 6 5 5 5 5 5 4 4 4 4 4 4 4 4 4 4 4 4 5 6 7 9 10 11 12 13 14 15 16 17 18 18 19 20 21 22 23 24 25 25 26 27 27 28 28 29 30 30 29 30 31 31 32 32 32 32 32 32 32 33 32 32 33 33 33 32 31 32 32
33 31 29 26 23 21 19 17 15 13 12 11 10 9 8 8 8 7 8 8 7 7 6 6 6 5 5 5 5 4 4 4 4 5 6 7 9 11 12 14 15 16 17 17 18 18 19 19 19 20 21 21 22 23 24 25 26 27 28 29 30 31 32 33 33 33 34 35 36 36 35 35 35 36 36 36 37 36 37 36 36 36 35 36 35
34 32 29 27 24 22 20 18 16 15 14 12 11 10 10 9 10 10 10 10 9 8 8 7 6 6 6 5 4 4 4 4 5 6 8 9 10 12 13 15 16 17 18 19 19 20 20 21 21 21 21 22 22 22 23 24 25 26 27 28 30 31 32 33 34 34 35 36 38 38 39 40 40 40 40 40 40 40 40 40 40 40 40 39 38
33 31 29 27 26 24 22 20 19 17 15 14 13 12 12 11 12 12 12 11 10 9 8 8 7 6 6 5 5 5 5 6 7 8 9 11 13 15 17 19 20 22 23 23 24 24 24 25 25 25 26 26 27 27 28 29 29 30 31 31 32 33 34 35 35 36 36 37 38 39 40 42 43 44 45 45 45 44 42 43 42 42 43 43 42
31 30 29 28 27 25 23 22 21 18 16 15 14 14 13 13 14 13 12 12 11 10 9 8 7 7 6 5 5 6 7 9 10 12 14 16 18 20 22 24 25 26 27 28 29 29 29 29 29 29 29 29 30 31 32 33 34 35 36 37 37 38 38 39 39 39 39 40 40 41 42 43 44 45 46 47 48 48 47 46 45 44 44 45 43
31 30 30 29 27 26 25 24 22 20 18 17 16 15 15 15 15 14 13 13 11 10 9 8 7 6 6 6 7 9 11 13 14 16 18 20 22 23 25 26 27 29 30 30 31 31 31 31 31 31 32 32 33 34 35 36 37 38 40 40 41 41 42 42 43 43 44 44 45 45 45 45 45 46 46 47 47 49 49 50 50 49 47 46 45
32 32 31 30 29 28 28 27 24 21 19 18 16 15 16 16 16 15 14 12 10 9 8 8 8 8 9 9 10 11 13 15 17 19 21 22 24 25 27 28 29 30 31 32 32 32 31 32 32 32 33 34 35 36 38 39 40 41 42 43 43 44 44 44 45 45 47 48 48 49 49 49 49 50 50 49 48 48 49 50 52 53 52 50 48
34 33 32 31 30 31 30 29 26 23 20 17 16 15 16 16 16 15 14 12 10 10 9 9 9 10 10 11 12 13 14 16 19 21 23 24 26 27 28 30 31 32 33 33 33 33 32 32 32 33 34 36 37 39 40 42 43 43 44 44 44 45 45 45 46 47 48 49 50 51 52 51 52 52 53 53 52 50 50 50 51 52 52 51 51
34 34 33 32 32 33 33 30 27 24 20 17 15 15 15 15 16 15 14 12 11 11 10 10 11 11 12 13 14 15 17 19 21 23 25 27 28 29 31 32 34 35 35 35 35 34 33 33 33 34 36 37 39 40 42 43 44 44 44 44 45 45 46 46 47 48 48 49 50 51 52 53 52 53 53 53 52 51 50 50 49 49 49 49 50
28 30 33 35 36 35 33 30 27 24 21 18 16 16 15 15 16 15 14 13 12 11 11 11 12 13 14 15 15 17 19 21 23 25 27 29 30 31 33 35 37 37 37 36 35 34 33 34 35 36 38 39 40 42 43 43 44 44 44 45 45 46 47 48 48 49 49 49 50 51 52 52 52 52 52 50 49 47 46 47 47 44 43 44 46
23 26 31 35 38 36 32 29 26 23 21 19 17 17 17 16 17 16 15 14 13 13 12 12 13 15 16 16 18 19 21 23 25 27 29 30 32 33 35 37 38 38 37 36 34 34 34 35 37 38 39 40 42 43 43 43 43 44 44 45 46 47 48 49 49 50 50 50 51 51 51 51 51 50 49 47 45 43 41 42 43 40 39 41 43
24 26 28 31 33 33 30 28 25 23 21 20 19 18 18 17 16 16 15 15 15 15 14 15 16 17 17 18 20 21 23 25 26 28 30 32 34 35 37 38 38 37 36 34 34 34 36 37 38 39 41 42 42 42 42 42 42 43 45 46 47 48 48 49 50 51 51 51 51 51 51 50 49 48 46 45 43 41 39 38 37 36 35 36 38
22 22 23 23 25 25 26 26 25 22 20 19 19 18 17 16 16 16 16 16 16 16 17 17 18 19 19 20 21 23 24 25 27 28 31 33 35 36 37 38 37 36 34 34 34 36 37 38 39 40 41 42 42 42 41 42 42 43 45 46 47 48 48 49 50 51 52 52 51 51 50 49 48 46 44 43 41 40 38 37 35 34 33 32 34
16 15 14 14 16 18 20 23 23 20 19 18 18 17 17 17 16 16 16 17 18 19 19 20 20 21 21 22 23 24 24 25 27 29 31 33 35 36 37 37 36 34 34 34 36 37 38 39 39 40 41 42 42 41 41 42 43 44 44 45 46 48 48 49 49 49 50 50 50 49 49 47 46 44 42 41 40 38 36 35 34 33 31 30 30
12 11 10 10 11 13 15 18 19 18 17 16 17 17 18 17 16 16 17 19 20 21 21 22 22 23 23 23 23 23 24 25 27 29 32 33 35 36 36 35 34 34 34 36 37 38 38 39 40 41 41 42 42 41 41 42 43 44 44 44 45 46 47 48 48 47 47 47 47 47 47 46 44 42 41 39 38 37 35 33 33 32 30 27 26
12 11 11 11 11 12 13 14 15 16 16 16 17 17 18 18 17 19 20 21 22 23 24 24 24 24 23 22 22 23 24 26 28 30 32 33 35 35 35 35 34 35 36 37 38 38 38 39 40 41 41 42 41 41 42 42 43 43 43 43 44 46 46 46 46 46 46 45 45 45 45 45 43 41 39 38 36 35 33 32 31 30 29 27 26
14 13 13 14 14 14 14 15 16 17 18 19 19 19 19 20 21 22 22 23 24 24 24 24 23 22 21 21 22 23 25 27 29 31 33 34 35 35 35 35 35 36 37 38 38 38 38 40 40 40 41 41 41 41 42 42 43 43 43 43 44 45 45 46 45 45 44 44 43 43 43 43 42 40 37 34 32 31 30 31 31 31 31 30 29
14 13 13 13 13 13 13 14 15 17 18 19 19 20 21 22 23 23 23 23 22 22 22 22 21 21 20 21 23 25 27 29 30 32 33 34 35 35 35 35 36 37 37 37 37 38 39 40 40 40 41 41 41 41 41 42 42 42 42 43 44 44 44 44 44 43 43 42 42 41 41 40 39 37 33 29 27 27 29 32 34 35 35 35 35
12 12 11 10 11 11 12 13 14 15 17 18 19 21 22 22 22 21 21 21 21 22 22 22 21 21 21 23 24 26 28 30 31 33 34 35 35 35 35 35 37 37 37 36 36 37 38 39 39 39 40 41 41 41 41 42 41 41 41 42 42 42 42 43 42 42 41 41 40 38 37 36 36 33 30 28 27 28 31 35 37 38 38 38 37
12 11 11 10 11 11 11 12 13 14 16 17 18 19 20 20 20 20 21 22 23 23 23 23 23 22 23 24 26 28 29 31 32 33 34 35 35 35 35 36 37 37 36 35 36 37 38 38 38 38 39 41 42 41 41 41 41 40 39 40 40 40 41 41 41 40 39 38 37 36 33 33 33 31 30 29 29 31 34 36 37 38 39 39 38
13 12 11 10 10 11 11 13 15 16 17 18 18 18 19 19 20 21 22 23 24 24 25 25 24 24 25 26 27 29 31 31 32 33 34 35 34 34 35 36 36 36 35 35 36 37 37 37 37 38 39 40 41 41 40 40 40 39 37 37 37 38 40 40 40 39 38 37 36 35 32 30 30 30 30 30 31 31 33 34 35 36 39 41 39
14 13 12 11 11 11 12 14 15 17 17 18 18 18 19 20 21 22 23 24 25 26 26 26 26 26 26 28 29 30 31 31 32 33 34 34 34 34 35 35 35 34 34 35 35 36 37 37 37 38 39 39 40 41 40 39 39 37 35 34 35 36 37 39 39 39 39 38 38 36 34 31 30 31 30 30 30 29 29 31 33 36 40 42 41
15 14 13 12 11 11 13 14 15 17 18 18 18 19 20 20 22 23 24 25 26 27 28 28 28 27 28 29 30 30 31 31 31 33 34 34 33 34 35 35 34 33 34 34 35 35 36 37 37 38 39 39 39 39 40 39 37 35 33 31 32 33 35 37 38 38 38 39 39 39 38 36 34 33 32 31 30 28 27 30 33 37 40 40 40
18 17 15 13 12 14 14 15 16 18 19 19 20 20 20 21 23 24 25 26 27 28 29 29 29 28 28 29 30 30 31 31 31 33 33 33 33 34 34 33 33 33 33 34 34 34 36 37 38 39 40 39 38 38 38 37 35 33 31 29 29 29 30 32 36 37 38 39 40 40 41 39 36 35 34 33 31 29 30 34 36 37 38 38 39
20 20 18 15 15 16 16 16 17 18 20 21 21 21 21 22 23 24 26 28 29 29 30 30 29 29 29 29 30 30 30 31 32 32 33 33 33 33 33 32 32 32 33 33 33 34 36 37 38 39 40 39 38 37 36 34 33 31 29 27 26 26 27 29 33 37 38 40 41 42 42 40 38 38 37 36 35 34 35 37 38 37 37 38 39
22 22 20 18 18 18 18 19 19 20 21 22 22 22 22 23 24 26 27 29 30 30 31 30 29 29 29 29 30 30 30 31 31 32 32 32 33 33 32 31 30 31 32 32 33 34 36 37 39 40 40 40 39 38 36 34 33 32 31 30 28 27 27 29 32 36 39 41 42 42 42 40 38 38 37 37 36 37 37 38 38 36 36 36 38
24 24 23 21 20 20 20 22 22 22 23 23 23 23 24 24 26 27 30 31 31 31 31 30 29 29 29 30 30 29 30 31 31 31 31 32 32 32 31 30 29 29 30 32 33 34 35 37 39 41 42 41 40 38 36 34 33 32 31 30 29 30 31 32 33 37 39 39 40 40 40 40 39 38 38 38 39 39 38 38 37 36 36 37 38
26 27 26 24 23 23 24 25 25 26 25 25 25 25 24 25 27 29 31 32 32 32 31 30 29 29 29 30 30 29 30 31 30 30 31 32 32 32 31 30 29 29 30 31 32 33 35 37 38 40 41 41 39 37 35 32 31 31 31 31 32 34 35 35 35 37 38 39 39 40 40 39 38 38 38 38 39 39 38 38 37 37 37 36 36
26 27 28 28 28 28 27 28 28 28 28 27 26 25 25 26 28 30 32 33 33 32 31 30 30 30 30 30 30 30 31 30 30 30 31 31 30 30 30 29 28 28 29 30 31 33 34 36 37 39 40 39 37 35 32 29 29 30 32 33 35 36 37 37 38 39 40 41 41 41 41 40 40 40 38 36 36 37 38 39 39 37 35 33 32
24 25 28 31 31 31 31 31 31 30 30 29 27 24 24 26 28 30 32 33 33 33 32 31 31 30 30 30 31 31 31 30 29 29 30 30 29 29 29 28 27 27 28 30 31 32 33 34 36 37 38 38 36 32 29 28 29 30 32 33 35 36 37 38 38 39 39 39 41 42 43 42 41 40 39 37 36 36 36 36 36 33 32 30 29
23 25 27 29 31 32 33 33 33 32 31 30 27 24 24 25 27 29 31 33 34 34 33 32 31 31 31 31 31 32 31 30 29 29 29 30 29 28 28 28 26 25 27 29 31 32 33 33 34 35 34 34 33 31 28 26 26 27 28 31 33 34 35 36 36 36 37 39 41 41 41 39 37 37 38 38 38 36 34 33 31 30 29 29 29
23 25 27 29 30 31 31 32 34 34 32 30 27 25 25 26 27 29 31 33 35 35 33 32 32 31 31 31 31 31 30 30 29 29 29 30 28 26 26 27 27 26 26 27 29 31 31 30 31 30 29 28 29 28 27 25 24 25 26 28 30 32 33 35 36 36 37 38 39 38 37 36 36 36 36 35 35 34 33 32 31 29 29 30 31
24 26 27 28 28 28 28 29 31 33 33 32 29 26 26 27 27 28 30 33 34 34 34 33 32 32 31 31 31 30 30 29 29 29 30 30 29 26 23 23 25 27 26 25 26 28 28 27 26 26 26 25 25 24 24 24 23 24 27 28 29 31 32 34 35 35 36 36 35 35 34 33 33 32 32 32 32 32 32 32 31 31 31 31 31
Wind_Direction
42 32 53 81 97 98 93 88 80 80 84 88 95 98 100 105 112 109 105 106 108 105 102 100 93 89 89 85 98 118 126 145 224 192 214 241 246 251 249 248 264 284 293 286 286 288 287 290 293 295 297 299 300 299 298 296 293 292 290 287 288 290 292 293 294 295 295 295 296 294 291 291 292 292 292 291 291 290 290 289 286 282 279 277 275
80 84 102 110 117 116 111 110 110 105 100 98 96 94 97 102 105 105 109 115 113 108 105 102 95 85 74 73 69 68 90 19 329 322 304 292 285 287 279 266 269 275 274 268 270 277 283 288 291 292 294 296 296 292 289 288 288 289 289 287 287 288 289 290 291 293 296 298 300 297 294 292 290 290 291 291 292 292 293 293 291 290 288 284 279
116 112 110 111 111 112 112 110 107 102 97 94 92 92 93 94 94 96 98 99 95 94 92 88 84 78 74 73 67 62 71 61 39 32 13 347 338 341 342 328 314 306 295 282 274 271 274 278 282 283 284 286 288 288 286 285 286 287 290 291 292 292 292 291 291 294 295 297 301 302 302 301 298 296 293 289 290 291 292 294 293 291 290 286 282
118 114 112 110 109 109 107 103 100 98 96 93 92 91 90 89 89 91 91 90 89 87 85 81 79 78 77 75 73 73 71 63 53 48 39 28 21 19 17 9 0 351 343 331 314 301 293 291 289 288 287 287 288 288 288 287 286 287 289 292 293 295 296 295 294 296 296 295 296 300 305 307 306 304 299 293 291 289 289 289 288 287 285 283 283
118 115 112 111 109 107 103 101 99 98 96 94 92 90 89 89 88 89 88 87 85 82 80 78 78 77 76 75 73 73 76 75 70 65 59 51 44 36 31 26 18 7 1 354 345 340 334 329 325 320 317 314 311 309 305 300 296 294 293 293 293 294 295 295 294 295 297 299 300 299 302 302 299 302 303 299 294 291 289 286 285 285 283 281 282
119 116 114 111 108 105 102 100 98 96 94 91 89 88 88 88 88 87 85 83 80 78 75 74 74 74 72 74 74 75 80 78 68 63 60 53 46 39 33 29 22 14 7 359 352 348 345 344 343 341 339 336 334 331 325 318 311 304 300 296 293 292 292 292 292 293 296 301 302 298 294 291 293 300 304 301 297 294 292 290 288 286 285 283 281
122 117 115 111 107 104 101 98 94 92 90 87 85 84 84 85 85 85 82 80 77 75 74 72 72 72 69 68 69 65 62 60 56 52 50 48 44 39 36 33 29 23 15 8 1 354 349 345 343 343 343 342 342 339 335 332 327 320 314 306 298 293 291 290 290 291 292 295 297 297 294 290 292 296 298 300 301 299 296 294 293 292 290 288 285
124 120 116 112 109 105 101 98 95 91 89 89 87 85 83 83 84 84 82 81 78 76 76 73 70 68 65 62 61 57 53 52 50 43 42 42 38 37 35 33 34 33 29 26 20 12 6 359 356 353 349 348 347 345 345 345 342 337 330 320 310 303 299 296 294 292 292 292 291 293 295 295 295 295 296 298 301 300 298 297 297 295 293 291 289
128 123 119 115 111 107 104 101 98 96 95 94 92 89 86 84 84 84 83 82 80 77 74 71 66 61 59 56 55 55 54 53 49 42 41 37 29 32 31 29 32 32 32 32 29 25 22 18 16 11 9 9 5 4 2 358 356 353 350 346 337 325 315 308 303 298 297 296 294 293 293 294 295 295 297 297 297 298 298 298 299 298 296 294 293
132 127 123 119 115 111 108 106 104 102 100 98 95 93 89 86 84 83 81 80 78 74 68 66 63 56 54 52 52 53 54 55 50 41 42 36 27 28 25 24 24 21 23 23 20 20 19 17 15 14 15 16 14 13 10 6 5 3 2 2 360 354 345 334 324 314 306 302 300 298 297 297 296 296 296 296 296 295 295 296 298 299 299 298 297
137 132 127 124 120 116 114 112 110 106 103 101 99 97 92 88 83 79 79 78 75 71 65 63 61 55 52 50 49 52 52 52 41 33 36 26 16 18 16 14 12 10 12 10 8 11 11 9 9 10 10 9 7 7 6 6 7 7 5 3 1 1 0 357 352 341 329 320 313 308 305 303 302 301 299 297 296 296 297 297 297 298 297 297 298
142 137 133 130 126 123 122 119 115 112 110 109 105 100 96 91 81 77 81 81 77 71 65 63 61 57 55 49 48 50 45 34 22 19 21 12 9 14 12 8 6 4 4 360 0 3 4 3 2 1 0 360 1 2 2 3 2 1 360 358 358 356 355 356 355 352 348 345 340 334 328 321 315 308 303 300 297 296 296 296 297 299 297 296 298
148 144 140 137 133 131 130 126 121 119 118 117 112 104 98 94 85 77 81 84 80 74 68 66 60 60 61 51 49 48 31 16 10 6 3 0 3 4 358 356 355 355 354 353 355 357 357 355 353 353 353 353 355 354 353 352 350 349 348 348 348 346 346 346 347 346 346 346 345 344 344 341 336 327 319 314 308 303 300 298 298 298 296 296 300
155 151 147 144 142 140 138 135 130 128 127 125 117 108 99 95 90 78 81 87 84 75 69 65 59 60 61 49 45 41 18 6 359 352 349 348 348 348 347 349 350 351 352 354 356 355 353 350 349 348 347 345 344 342 341 340 339 338 338 337 338 339 339 338 337 337 336 336 336 334 335 337 336 333 329 328 326 321 317 314 311 308 303 302 304
162 158 155 153 151 150 148 145 141 138 137 133 123 114 105 100 96 84 83 89 89 79 70 64 58 54 52 42 32 20 4 355 347 344 343 343 343 344 345 346 346 347 349 350 351 349 347 347 345 343 341 339 336 334 332 331 330 329 329 329 329 330 330 330 330 329 328 328 328 327 328 330 330 328 326 326 326 324 324 324 322 319 316 313 313
168 165 162 161 160 160 159 156 153 150 148 143 132 121 116 109 103 97 94 96 97 86 70 64 57 48 43 31 9 353 344 336 338 339 337 338 338 338 338 338 338 338 339 338 336 336 336 336 336 335 335 334 331 330 328 327 326 324 323 321 320 320 320 321 322 322 322 322 322 322 321 323 323 323 322 322 321 320 320 320 319 318 316 314 314
173 170 167 168 169 169 169 166 163 160 159 155 145 136 135 133 126 126 128 128 132 125 101 87 68 37 6 317 314 311 316 321 327 326 327 329 327 325 325 325 326 325 324 324 323 323 323 323 323 323 323 322 322 321 320 321 321 320 319 318 317 315 315 315 315 315 315 315 315 316 316 316 317 316 316 316 315 314 314 313 312 312 309 306 306
176 175 174 176 178 178 176 175 173 171 171 169 164 159 158 164 169 175 186 184 182 187 190 199 210 239 242 242 269 277 283 296 303 305 308 311 310 311 312 312 314 315 315 315 315 315 315 315 315 315 314 314 314 315 315 315 315 314 314 314 313 312 311 312 312 311 311 310 310 310 310 311 311 310 310 309 309 309 308 307 306 305 302 298 297
183 182 182 183 183 184 184 182 182 181 181 181 180 179 180 187 193 196 206 209 209 212 216 220 224 232 240 242 252 259 266 274 281 290 296 301 305 310 313 315 317 318 317 316 315 315 314 314 313 313 313 313 313 314 314 313 313 312 312 311 311 310 309 309 309 308 308 308 307 307 307 308 307 307 306 305 305 304 303 303 302 300 298 295 294
188 187 187 188 187 190 190 190 190 189 190 190 190 194 197 201 205 209 217 219 218 220 220 224 227 231 235 236 242 253 265 283 296 310 316 319 322 323 325 325 324 323 321 319 317 316 314 313 313 312 311 311 310 310 308 307 307 306 306 306 306 306 305 305 305 305 306 306 305 306 305 306 305 304 304 303 302 302 301 300 299 297 296 293 292
192 191 191 192 193 195 196 195 198 197 197 197 198 203 206 209 213 217 221 220 220 222 221 225 228 230 237 242 253 269 287 305 318 325 327 329 330 330 330 329 327 325 322 319 318 316 315 315 314 313 312 311 310 308 306 304 303 302 301 301 301 301 300 301 301 301 302 303 303 304 304 305 304 303 302 301 300 299 298 298 297 296 294 293 291
196 195 195 197 199 201 201 201 203 203 203 203 204 208 211 215 220 221 221 220 220 223 225 232 236 238 246 254 266 286 302 316 325 329 331 334 334 334 335 333 332 330 328 325 323 321 320 319 318 317 316 314 313 312 311 309 308 307 306 305 305 304 303 302 302 301 301 301 301 301 302 302 302 302 301 301 300 299 298 296 295 294 293 292 290
202 201 203 205 206 207 207 208 209 208 207 209 209 212 216 222 225 224 223 222 224 228 232 236 240 244 254 269 290 310 322 328 331 332 333 335 334 334 333 332 331 330 328 327 324 322 321 319 318 317 316 315 314 313 312 312 311 311 310 309 309 308 307 306 305 304 304 303 303 302 301 301 301 300 299 299 300 300 299 297 295 293 292 291 290
209 209 211 212 212 213 214 215 215 211 210 212 212 216 222 226 228 226 225 226 228 232 236 240 248 261 276 294 311 321 328 330 330 330 331 332 332 331 331 329 328 327 326 324 322 320 319 317 316 316 315 315 314 313 313 313 312 312 311 310 310 309 308 308 307 307 307 306 306 304 303 303 302 300 298 298 298 298 298 298 297 295 293 291 288
215 216 217 218 217 219 220 221 219 215 213 214 215 220 227 230 230 228 226 228 233 237 241 250 263 274 285 299 311 319 325 326 327 327 328 328 328 327 326 325 324 324 322 321 319 317 316 315 314 314 313 313 313 313 313 313 313 312 311 310 309 308 308 307 307 307 308 308 308 307 306 305 305 303 300 299 297 295 294 294 294 294 294 293 291
219 220 222 223 223 224 225 225 223 219 218 219 220 224 229 232 231 229 230 233 238 241 246 257 267 277 289 301 310 316 322 324 324 326 325 325 324 323 323 322 322 322 320 319 317 315 314 313 312 312 312 312 313 312 312 312 311 311 310 309 308 308 308 307 307 307 307 308 307 307 306 306 305 303 301 300 299 296 294 291 289 289 290 291 292
225 226 228 229 229 230 229 228 225 223 223 224 225 228 233 237 236 234 234 234 235 238 245 257 269 282 293 301 308 314 319 321 322 323 322 322 322 321 321 321 320 320 319 317 316 314 313 312 311 312 311 311 311 311 311 311 310 309 309 308 308 307 307 307 307 307 306 306 305 305 304 304 303 302 301 301 300 299 297 294 292 289 288 288 287
231 232 234 234 234 234 232 229 227 226 227 229 231 233 237 240 238 234 232 230 231 237 246 258 271 283 291 298 305 310 314 317 317 318 319 319 319 318 318 318 318 318 317 315 314 312 311 310 311 311 310 310 310 309 310 310 309 309 309 308 308 308 307 307 307 306 306 305 304 304 303 302 301 301 300 300 299 298 297 295 293 291 289 287 285
243 242 241 240 239 238 235 231 228 228 230 233 233 235 238 239 233 226 225 226 229 237 247 258 269 279 287 294 300 305 309 312 313 314 315 315 315 315 315 315 315 315 314 312 310 309 309 309 309 309 309 309 309 310 310 311 310 310 310 309 309 309 308 308 307 306 306 305 304 303 302 301 301 301 300 300 299 298 296 294 292 290 287 285 284
251 250 250 249 245 242 239 233 230 230 233 235 235 237 241 238 229 223 224 227 231 239 249 258 267 276 283 290 295 300 304 307 309 311 311 312 312 312 312 312 312 311 310 309 308 308 308 308 308 308 308 309 309 310 311 312 312 312 312 311 310 310 310 309 308 308 307 306 305 304 303 303 303 303 302 301 300 298 295 293 291 289 287 284 283
256 255 254 252 249 245 240 233 230 231 234 235 236 239 241 236 227 225 227 231 236 244 251 258 265 273 280 286 292 297 300 303 306 307 308 308 308 308 309 309 309 308 307 306 307 307 308 307 307 308 308 309 309 311 312 313 314 315 314 313 312 312 311 311 310 309 307 307 306 306 306 306 305 305 304 302 301 299 297 294 291 287 284 280 278
255 250 245 242 240 238 236 231 229 230 231 233 237 241 240 233 227 228 233 238 243 249 253 258 264 271 277 283 289 293 297 299 302 304 304 305 305 306 307 307 306 305 305 305 306 306 307 307 308 308 309 309 310 312 314 315 315 316 315 314 313 313 312 311 310 309 309 309 309 309 309 308 307 307 306 304 303 302 301 299 297 293 287 280 275
234 230 228 231 232 232 230 228 226 228 232 238 244 244 239 233 232 237 242 245 249 252 256 260 265 270 276 281 286 290 294 296 298 300 302 303 304 305 306 305 304 303 304 305 306 306 307 308 308 309 309 310 311 313 315 316 316 316 316 315 313 312 311 311 310 310 310 310 311 311 311 310 310 310 309 308 309 309 308 305 302 300 295 288 282
223 227 229 231 231 227 224 223 226 232 238 243 244 241 236 233 237 243 247 251 255 258 261 264 267 271 275 279 284 287 290 292 295 298 301 303 305 306 306 304 303 303 304 306 306 307 308 309 309 310 310 310 312 314 316 316 316 316 316 314 312 311 312 312 311 311 311 312 312 312 312 312 312 311 311 313 315 316 313 309 305 302 299 295 290
229 230 230 227 223 221 222 225 231 236 240 240 238 235 233 234 239 246 251 257 262 264 266 267 268 270 273 277 281 284 287 291 296 300 302 304 305 306 305 303 303 304 305 306 307 308 309 310 310 311 311 311 313 316 317 317 316 317 316 314 313 313 313 313 313 313 312 313 313 312 312 313 312 313 315 319 320 317 312 307 303 302 303 302 299
232 229 228 225 222 225 229 233 238 240 240 240 239 238 238 240 245 250 255 261 265 266 266 266 266 268 271 275 278 283 288 294 299 302 303 305 305 304 303 302 303 304 306 307 308 309 310 310 311 311 311 312 314 317 317 317 317 318 316 315 315 315 315 314 314 314 313 313 312 312 312 312 311 313 317 320 321 315 306 302 302 304 304 303 302
228 224 222 220 222 227 230 233 236 237 238 241 242 243 246 247 250 255 260 264 266 267 266 266 266 267 270 273 278 285 293 298 301 302 304 304 304 303 302 303 303 305 306 307 308 309 310 310 311 312 312 313 315 317 318 318 319 319 318 317 317 316 315 314 313 313 312 312 312 311 311 311 311 314 319 322 320 310 301 300 301 301 300 299 299
225 226 225 222 222 227 232 237 239 239 240 240 242 246 249 252 256 262 266 266 266 266 265 264 264 265 268 273 281 290 296 299 301 302 304 303 302 301 302 304 304 305 306 307 308 309 310 310 312 313 314 314 315 317 319 319 320 320 319 318 317 315 314 313 314 313 312 311 311 310 311 312 312 315 318 316 308 299 296 296 296 295 295 295 296
230 229 225 222 225 233 241 246 247 248 248 246 246 249 252 257 262 264 265 265 265 264 263 261 261 263 268 276 285 293 297 299 300 302 302 301 301 302 303 304 304 305 306 308 309 309 310 311 312 313 314 315 316 318 320 320 321 322 321 319 316 314 313 313 313 313 312 311 310 309 311 313 313 314 315 308 298 293 293 293 292 292 291 292 297
233 229 226 226 234 245 255 259 258 256 254 251 251 254 257 261 264 264 264 265 264 263 261 260 260 264 271 280 289 295 297 298 299 300 301 300 301 303 304 304 304 305 307 309 309 310 310 312 313 314 315 316 317 318 320 322 322 322 320 317 314 312 313 314 315 315 314 313 312 312 313 315 314 315 315 308 299 297 297 296 296 294 292 295 301
232 229 232 237 249 263 269 269 265 260 257 256 255 258 262 264 264 265 266 266 263 262 261 260 262 267 275 284 291 295 297 297 298 299 299 300 302 304 304 304 304 306 308 309 310 310 311 312 313 314 314 316 318 319 321 322 321 321 319 316 313 313 316 315 313 312 310 309 309 310 312 314 315 315 313 308 305 303 300 298 298 296 296 299 302
235 234 237 244 260 270 268 264 263 261 260 260 259 261 264 265 266 269 268 266 264 263 262 262 264 271 279 287 292 295 296 297 297 298 298 300 303 304 303 303 305 307 308 309 310 311 311 312 313 313 314 316 318 320 321 320 320 320 318 315 313 314 313 309 306 306 306 306 307 307 309 311 314 315 312 310 308 305 300 298 297 295 295 296 296
243 242 243 251 264 268 264 260 261 260 260 260 260 262 264 267 271 272 268 266 265 264 263 264 267 274 283 289 294 296 297 297 296 296 297 300 303 303 302 303 305 307 309 309 310 311 312 312 312 313 314 316 317 319 320 320 321 321 320 318 317 315 312 307 304 305 305 305 306 307 309 313 316 315 312 309 306 303 299 296 294 292 291 292 292
244 245 248 255 264 267 261 257 256 256 258 258 259 261 264 268 273 272 269 268 267 265 265 266 270 277 285 290 294 295 296 296 295 295 297 301 303 302 302 303 305 307 308 309 310 311 311 312 312 313 314 315 317 319 321 323 325 326 325 324 322 320 318 313 308 305 305 306 307 307 309 312 313 308 304 301 298 295 293 292 292 292 292 292 293
246 248 250 256 264 266 261 256 255 255 256 257 258 260 264 269 272 271 269 269 268 267 267 268 273 280 286 290 293 294 295 295 294 295 298 301 302 302 302 303 305 307 308 309 310 311 311 311 312 312 313 316 318 321 325 328 330 328 326 325 325 325 324 318 309 305 306 305 303 302 302 305 305 303 302 302 301 299 298 297 296 295 295 296 298
249 249 252 256 260 261 258 256 255 254 254 256 257 259 265 270 272 271 270 269 267 267 268 270 275 282 286 289 292 293 294 294 294 296 299 301 302 302 302 304 306 307 308 308 309 310 310 310 311 312 313 316 319 324 329 332 330 327 327 329 330 328 324 318 310 308 309 308 307 307 307 307 306 305 304 303 302 300 299 298 297 298 300 302 303
257 256 256 256 258 259 259 259 257 255 255 255 255 259 265 269 271 271 270 269 267 268 269 272 277 282 286 289 291 292 293 292 293 296 299 301 302 302 302 304 306 306 307 307 308 308 309 310 311 312 313 316 321 327 332 332 330 330 331 330 328 325 323 320 318 317 317 315 312 309 305 303 303 304 304 302 299 298 299 300 303 305 306 305 304
263 262 259 257 258 260 261 262 261 258 256 254 254 259 264 268 271 272 271 269 269 269 270 272 277 282 285 288 290 291 291 291 292 296 299 301 301 301 301 303 304 305 306 306 306 307 308 310 311 313 315 319 323 328 332 333 333 332 328 325 323 323 322 320 318 316 313 309 304 301 300 302 304 306 308 306 304 303 303 304 306 306 303 300 301
266 264 263 262 263 263 263 263 262 260 255 251 251 256 262 267 270 271 271 270 269 268 270 272 277 281 284 286 288 288 289 290 292 296 299 300 301 301 301 302 303 303 304 305 306 307 310 313 314 315 318 320 322 326 332 333 330 328 324 320 319 319 316 313 311 311 308 305 304 306 309 311 312 311 310 310 308 308 308 308 306 303 299 299 303
268 267 266 266 267 268 267 265 262 258 252 247 248 254 261 266 269 270 270 269 267 267 269 273 277 281 282 283 285 286 287 289 292 296 299 300 300 299 300 303 305 305 305 306 307 308 311 312 311 311 313 313 317 324 328 328 328 327 321 317 317 317 316 315 314 315 314 313 313 314 314 314 314 313 313 314 313 313 313 311 308 304 302 303 305
272 271 269 266 266 267 267 265 260 254 247 244 247 254 261 265 267 269 269 267 266 267 269 273 277 279 280 281 283 285 286 288 291 296 299 300 300 299 298 301 303 304 304 303 302 304 305 304 304 305 307 310 315 320 323 327 330 324 317 318 323 325 324 323 323 323 322 321 319 316 315 315 315 315 316 316 315 315 314 313 312 309 307 307 309